Wind_Speed
15 12 11 11 9 9 12 13 14 12 13 16 19 17 16 18 20 20 21 24 25 28 31 30 28 26 24 24 24 25 29 31 34 38 38 36 38 39 39 38 36 35
13 12 12 13 10 8 8 9 10 11 13 16 20 21 22 24 25 24 26 29 29 32 35 33 31 27 24 23 22 21 23 27 31 35 35 35 39 39 38 36 35 36
14 14 14 15 13 11 11 12 13 15 17 19 21 22 23 24 25 27 28 29 30 32 34 33 33 31 29 28 27 26 26 26 29 32 33 33 36 37 35 35 35 34
15 14 14 15 15 13 13 14 15 16 16 18 18 19 20 21 23 25 26 27 29 30 30 31 31 31 30 32 32 32 31 30 30 31 33 34 35 36 36 34 34 34
14 14 15 14 13 13 13 14 15 15 15 16 16 17 18 20 21 23 24 26 27 28 30 32 33 32 32 33 33 35 35 34 31 30 32 36 36 36 37 35 34 33
15 15 16 15 13 13 14 15 15 15 15 16 16 18 20 21 22 23 25 26 26 28 31 33 35 35 35 34 32 33 34 33 31 29 30 35 37 37 38 36 35 34
16 17 17 16 14 13 15 15 14 14 15 16 17 19 20 20 21 22 24 26 27 29 31 33 35 36 35 34 32 33 33 32 31 29 29 32 35 35 36 37 36 35
16 16 17 17 15 14 14 14 13 13 13 15 17 17 17 17 18 19 21 23 25 27 30 31 33 35 36 34 31 31 32 31 29 28 28 31 33 32 32 34 35 35
16 15 15 15 14 13 14 14 15 14 13 14 15 15 14 15 17 18 20 21 22 25 28 29 31 34 35 33 30 29 29 29 27 26 26 29 32 31 30 31 32 33
16 16 15 14 13 13 15 17 17 16 14 14 13 13 15 16 18 19 20 22 23 24 25 26 28 30 31 31 30 29 28 27 25 25 24 25 27 28 29 30 31 33
16 17 16 14 12 12 14 18 19 17 14 13 12 14 16 18 19 20 21 23 23 23 24 24 25 26 28 29 28 25 25 25 24 25 26 27 28 28 29 29 32 36
16 17 18 16 14 13 14 17 19 18 15 13 13 15 18 20 20 21 22 23 22 22 24 23 22 22 23 24 23 22 23 25 26 28 29 30 32 33 33 32 33 36
14 16 18 16 14 14 14 15 18 19 18 16 15 16 19 21 21 22 22 22 21 20 20 19 18 17 19 21 22 23 25 27 28 29 31 33 34 35 36 35 35 37
13 14 15 14 13 13 14 15 17 18 19 18 17 18 20 22 22 22 22 22 21 18 16 16 16 17 21 24 26 26 25 25 26 28 31 33 36 37 37 36 37 38
12 13 13 12 13 15 16 16 18 19 19 19 19 19 21 20 20 21 22 22 21 18 16 15 15 16 17 18 20 23 24 25 27 29 31 32 34 36 37 36 37 38
12 12 13 13 14 17 18 17 19 20 20 20 21 21 21 20 20 21 21 21 21 19 18 16 14 15 15 15 19 22 22 24 26 28 30 31 32 33 34 34 35 37
12 12 13 15 16 18 18 18 20 21 19 19 21 22 22 21 21 21 20 19 19 20 19 16 14 17 20 20 23 23 20 20 24 26 27 29 29 29 32 32 33 35
12 13 14 16 16 17 18 18 20 20 20 20 21 21 22 22 21 20 18 18 19 21 20 17 17 22 25 24 24 24 22 21 22 23 23 25 26 26 29 30 31 33
12 14 15 16 16 17 18 19 19 20 22 22 22 21 21 21 20 19 17 16 18 21 21 19 21 26 26 26 28 26 22 21 21 20 20 20 21 22 25 26 27 28
13 15 16 17 17 17 18 19 19 21 22 22 22 22 21 19 19 18 16 15 17 18 20 20 22 26 27 27 30 28 23 20 19 17 16 15 15 17 21 25 26 27
14 16 17 19 19 18 18 19 20 21 23 22 21 21 19 16 16 16 14 14 15 16 18 20 21 26 29 28 30 29 22 18 16 12 10 9 7 9 15 21 24 26
15 16 19 21 21 19 19 20 20 20 21 21 20 20 17 12 12 13 12 13 14 14 17 20 21 26 29 29 31 29 19 15 13 7 6 4 3 6 11 17 21 22
17 19 21 22 22 20 20 20 19 18 18 20 19 19 16 11 9 10 11 11 13 14 16 19 21 25 28 28 31 30 21 15 10 4 6 5 5 8 11 15 17 18
19 21 22 22 20 19 18 18 17 16 17 18 18 19 17 12 8 9 10 10 12 14 14 17 20 23 25 26 29 32 28 22 17 16 15 13 12 11 12 15 17 17
18 21 20 18 16 16 15 15 16 16 16 18 19 20 19 12 8 8 9 10 12 13 12 14 18 20 22 24 26 30 31 27 23 22 20 19 21 20 18 19 21 19
16 17 15 13 13 14 14 14 15 17 17 19 21 19 16 13 8 8 9 10 10 11 11 12 15 18 19 21 23 25 28 29 28 25 22 20 23 26 26 27 27 25
Wind_Direction
322 316 309 301 301 312 310 293 284 290 294 290 284 279 279 281 280 275 275 277 274 273 274 273 271 266 262 264 259 256 256 254 254 253 247 242 242 239 233 229 228 226
327 323 320 308 303 309 315 307 292 284 282 286 287 286 285 285 283 279 281 281 274 271 272 271 269 266 264 263 259 258 257 254 254 254 247 240 237 232 228 227 226 226
338 335 333 328 324 315 308 308 302 293 289 286 286 289 290 288 285 283 283 282 276 271 270 269 266 265 265 264 261 260 257 254 253 250 244 236 231 229 228 227 225 225
345 344 342 338 334 328 321 315 310 304 299 295 293 296 297 294 293 292 289 283 278 273 269 269 269 267 266 264 262 261 257 254 252 247 242 238 235 233 231 228 227 227
350 347 345 340 332 328 323 317 315 312 308 306 306 306 305 302 300 298 293 286 279 273 269 269 271 269 266 264 263 261 256 252 251 245 237 238 240 237 233 229 228 229
351 347 347 344 337 331 325 322 321 318 317 316 315 316 315 311 307 303 299 294 286 278 272 271 271 268 264 262 259 256 251 247 248 245 236 236 240 237 232 229 228 230
349 350 352 349 345 338 330 326 323 321 322 321 319 321 320 315 312 309 306 301 293 284 276 273 272 269 265 260 256 253 250 248 250 248 237 232 235 235 230 227 228 229
347 351 355 353 350 347 341 334 328 325 324 322 321 321 318 316 315 314 313 308 299 290 281 272 268 267 265 260 255 254 254 252 251 245 236 232 235 237 232 227 227 228
343 347 353 353 351 351 351 347 340 334 329 324 320 318 317 319 318 317 317 314 307 300 292 280 269 264 263 259 253 253 255 254 250 242 237 237 238 240 238 230 226 227
346 347 348 347 346 349 350 347 342 338 332 324 317 317 321 323 322 322 322 320 315 307 301 290 274 267 266 261 255 252 252 253 251 245 242 241 239 239 238 233 228 228
350 348 345 341 337 341 342 339 337 335 328 319 312 314 321 324 325 326 327 326 321 314 306 291 271 263 263 262 258 253 251 251 252 252 252 251 249 246 243 239 233 229
345 345 343 337 329 330 333 331 332 333 327 316 308 311 317 322 326 328 329 328 326 323 318 303 278 260 255 256 257 258 259 260 260 260 260 258 255 252 248 244 237 230
339 340 341 337 331 329 331 330 331 334 332 323 312 309 313 316 323 329 334 335 332 329 330 324 304 278 257 251 257 263 266 267 267 266 264 260 256 252 247 243 238 232
336 337 340 342 339 335 330 328 328 331 331 325 315 311 312 314 322 331 337 340 339 335 334 333 320 295 269 255 259 266 266 267 270 269 267 264 259 253 247 242 237 232
334 332 338 345 348 343 334 325 323 325 326 324 321 317 314 314 323 332 337 340 342 343 341 337 329 312 289 274 278 276 266 266 274 274 273 272 265 255 247 241 236 230
331 325 329 340 346 346 342 333 327 324 323 324 324 321 317 317 323 329 335 341 343 344 345 343 339 332 327 329 324 303 274 266 275 279 278 277 269 254 245 240 235 230
332 323 323 331 337 340 343 341 334 329 326 324 324 322 319 320 321 324 332 342 345 345 344 342 347 351 350 348 339 325 303 282 278 279 281 283 275 254 241 237 233 229
336 327 324 329 332 336 339 338 334 331 329 325 323 322 320 319 320 322 330 341 346 349 349 349 358 0 356 350 341 333 324 307 291 283 284 291 285 260 239 232 228 223
342 334 332 332 332 335 337 336 333 331 330 328 324 321 319 318 320 322 328 341 350 354 357 0 2 358 354 352 346 338 329 319 306 294 288 292 289 264 236 223 217 208
342 338 337 335 334 335 335 336 334 330 330 329 326 323 319 315 318 321 327 341 351 357 2 4 2 359 358 358 354 348 337 324 311 297 289 289 283 258 228 211 203 193
340 338 335 333 333 333 333 335 333 330 332 334 332 330 324 313 314 321 327 341 352 358 3 4 4 4 5 3 359 354 345 330 317 295 278 276 260 227 206 196 189 184
333 331 329 330 330 328 328 333 336 335 339 343 342 339 332 314 313 325 332 344 354 359 3 4 5 8 10 10 6 3 355 341 330 291 236 224 202 179 171 175 178 177
326 325 326 327 327 326 326 332 338 339 344 349 351 348 337 314 305 327 337 349 358 0 2 4 6 10 14 16 15 16 17 13 16 74 135 129 150 167 163 164 169 172
327 326 328 330 330 330 331 336 341 342 344 351 356 354 344 321 295 317 338 351 2 4 4 3 6 13 18 19 21 26 26 24 41 75 89 87 95 116 137 145 150 158
328 328 333 338 340 339 338 340 344 345 346 352 355 354 353 338 298 299 332 350 0 7 8 5 6 13 19 21 23 29 30 27 36 56 66 70 74 76 81 97 110 121
326 333 341 345 345 344 341 342 345 346 346 349 350 353 5 7 330 297 315 336 352 7 8 2 5 11 17 22 23 25 30 34 38 42 47 58 68 68 66 71 80 86
Height
793 792 791 789 787 785 784 784 784 784 783 783 783 785 785 785 785 784 784 783 783 783 782 782 782 782 781 780 781 783 784 784 784 784 785 786 787 788 790 791 792 793
792 791 789 788 786 785 783 783 782 781 781 782 782 782 782 782 782 781 781 780 779 779 777 776 777 778 779 778 778 779 780 781 781 781 782 783 784 784 785 786 787 788
792 790 789 787 785 784 783 782 781 781 781 781 781 781 780 779 779 778 778 777 776 776 774 772 772 773 774 775 776 776 777 777 777 778 779 779 780 780 779 781 782 784
792 791 789 787 786 784 783 782 781 781 780 780 779 779 777 777 776 775 774 774 773 774 772 770 768 768 769 770 771 772 772 772 772 773 774 775 776 775 774 776 777 778
791 790 788 787 785 784 783 782 781 780 779 778 776 775 774 773 772 771 771 771 771 772 770 767 765 764 764 765 766 767 767 767 767 768 769 769 770 770 770 771 771 772
790 788 786 785 784 782 781 780 779 778 777 775 774 772 771 769 768 767 767 767 767 768 766 763 761 760 760 761 762 762 762 763 763 764 765 764 765 765 765 766 766 767
788 786 784 783 782 781 779 777 776 775 774 773 771 770 768 767 765 765 764 764 763 762 760 758 755 755 756 757 758 758 758 759 759 759 759 760 760 760 761 762 762 762
786 785 783 781 780 779 777 776 775 774 772 771 769 769 768 766 765 764 763 762 761 759 756 753 750 749 751 752 753 753 753 754 755 754 754 755 755 756 758 759 758 759
785 783 782 780 779 777 776 774 773 772 771 769 768 767 766 765 764 763 761 760 758 756 753 750 748 745 745 746 747 748 749 749 751 751 751 751 750 751 754 755 756 756
783 782 781 779 777 776 774 773 772 770 769 768 766 765 764 763 762 761 759 757 755 753 750 747 745 743 742 742 742 743 743 744 746 747 748 747 746 747 749 751 751 752
783 781 779 778 776 775 773 772 771 769 767 766 765 763 762 761 760 758 756 754 752 749 747 744 742 741 741 739 739 739 739 740 741 742 742 741 741 742 743 745 746 746
782 780 779 777 776 774 772 771 770 769 767 765 763 762 761 760 758 756 754 752 749 746 743 741 739 738 737 737 737 737 736 736 736 736 736 736 735 735 736 738 739 739
782 780 778 776 775 773 772 770 769 768 765 764 762 761 760 759 757 755 752 750 747 744 741 738 736 735 734 734 734 734 733 732 731 731 731 730 729 728 729 730 730 732
781 780 778 776 774 773 771 770 768 767 765 763 761 760 759 758 755 753 750 747 745 742 739 736 734 733 732 731 731 730 730 728 727 726 725 724 723 721 722 722 722 723
780 778 777 775 774 772 770 769 767 766 763 761 760 759 758 756 755 752 749 745 743 740 738 736 733 731 730 729 729 727 726 724 722 721 719 717 715 713 713 714 714 716
778 777 776 775 773 771 769 768 766 765 762 760 759 758 757 755 754 751 748 745 741 739 737 734 733 731 729 728 726 724 722 720 718 715 713 711 708 705 705 705 707 708
777 776 775 774 772 770 768 767 765 763 761 759 758 756 755 754 752 750 747 744 741 738 735 733 732 731 729 726 723 721 718 716 713 710 707 705 701 699 698 699 701 703
776 774 773 772 770 769 767 766 765 763 760 759 756 755 754 752 750 749 746 743 740 737 734 732 731 729 727 724 721 717 714 711 708 705 703 700 696 694 694 695 696 699
774 773 772 771 769 767 766 764 763 762 759 757 755 753 752 750 748 747 745 742 739 736 734 732 730 728 725 721 717 713 710 706 703 701 699 696 693 690 691 692 693 695
773 771 770 769 767 766 764 763 762 760 758 756 753 751 750 748 747 745 743 741 739 736 734 732 730 727 723 719 715 710 706 703 700 698 696 694 691 689 689 690 691 693
771 770 769 768 766 764 762 761 760 758 756 754 752 750 749 747 746 744 743 741 739 737 735 733 731 728 723 719 714 708 704 701 698 697 695 693 691 690 689 690 690 691
770 769 768 766 765 763 761 760 759 757 755 753 750 748 747 746 745 744 742 741 739 737 735 733 731 728 723 719 713 707 702 699 697 695 694 694 693 692 691 691 691 692
769 768 766 765 764 762 760 759 757 756 754 752 749 747 746 745 744 743 742 740 739 737 735 733 731 728 724 720 714 708 703 700 698 695 694 695 695 693 693 693 693 694
769 767 765 763 762 761 759 758 756 755 753 751 749 747 745 744 743 743 742 740 739 737 735 733 732 729 726 722 717 712 707 704 700 697 697 697 696 695 695 694 695 696
768 766 764 762 761 760 758 757 755 754 752 751 749 747 745 743 743 743 742 741 739 737 735 734 733 731 728 725 720 716 712 708 704 702 701 700 699 698 697 695 696 697
766 765 763 761 760 759 758 757 755 753 752 750 749 748 745 743 742 742 742 741 740 738 736 735 733 732 730 727 724 721 717 712 709 707 706 704 702 701 700 699 699 700